DECAYED
Showing default

CP11 (ISX), 43856 (Decayed)

Orbit data source: Space-Track

CP11 (ISX), 43856 was a payload satellite owned by Cal Poly (US) in LEO that was launched on Sun, 16 Dec 2018 UTC via an ELECTRON launch vehicle from the Rocket Lab Launch Complex (RLLC). Payloads include a variety of satellites, spacecraft, and rockets equipped with specific instruments for various scientific and technological missions. These include communications satellites like Starlink; space stations such as the ISS; scientific satellites like the Hubble; Earth observation satellites from companies like Planet Labs, Umbra, and HawkEye 360; GPS; miniature CubeSats for education and research; and military/defense satellites.

Not visible in the next 10 days
CP11 (ISX) details
Identifier
43856, 2018-104H
Orbit
Decayed
Last TLE update7 months ago
Origin
Flag of USCal Poly (US)
ManufacturerCal Poly
MissionDecayed Amateur Technology
Bus & MotorCUBESAT 3U, Unknown motor
Mass3.5 kg wet, 3.5 kg dry
Launch date (UTC)
2018-12-16 (6 years ago)
Launch vehicle
ELECTRON
Launch site
Rocket Lab Launch Complex (RLLC)
Object type
Payload
Rocket body
Debris
Shape & HBRBox + 2 Pan, 0.3 m
Radar Cross Section0.035 m², Small (<0.1 m²)

Expand to show TLE details & history

TLE from 7 months ago
0 CP11 (ISX)
1 43856U 18104H   24137.54898874  .09084474 -14778-5  12966-2 0  9995
2 43856  84.9711 295.3142 0013845 258.8411 101.1335 16.34609461302249
Epoch: 2024-05-16T13:10Z
Definitive object data (Epoch: 2024-05-16T13:10:32.627Z)
Latitude-0.00001°
Longitude-137.06353°
Altitude185.251 km
Speed7.794 km/s
True Right ascension19h 41m 15s
True Declination0° 00' 00"
Sunlit
Object was in full shadow at TLE epoch
Visualization observer readout
Observer readout values are unavailable because the object's trajectory could not be propagated. This is usually caused when the trajectory data is faulty or the object's orbit has decayed.
Visualization observer readout
Observer readout values are unavailable because the object's trajectory could not be propagated. This is usually caused when the trajectory data is faulty or the object's orbit has decayed.
Orbital elements
Apogee altitude185.982 km
Perigee altitude167.831 km
Semi-major axis6,555.043 km
Eccentricity0.0013845
Inclination84.9711°
RAAN295.3142°
Arg. of periapsis258.8411°
True anomaly101.28911°
Mean anomaly101.1335°
Eccentric anomaly101.21131°
Mean motion4.08959 °/min
BSTAR0.0012966
Orbital period88.03 mins
Loading maneuver chart data...

CP11 (ISX) Visibility forecast

Observer location: undefined°, undefined

This satellite is decayed
Span
Click to sort rows by Start time (UTC) header in descending order
Start Az.
Max El. time (UTC)
Max El. Az.
Max El.
End time (UTC)
End Az.
|